When you browse on this site, cookies collect data to enhance your experience and personalize the content and advertising you see.
Visit our Privacy Policy to learn more. By continuing to use the site, you agree to this use of cookies and data.
  • In Österreich
  • Länderverzeichnis
  • Für 7 Tage
  • Wassertemperatur
  • Satellitenkarten
  • Wetterkarte
  • News
  • Widgets
  • user-avatar
    Anmelden

    Stündliche Wetter Sumgayit

    Heute, 24 März, Sonntag

    Zeit Temperatur Niederschläge Wind Luftdruck Luftfeuchtigkeit
    00:00 +7°C° 0 mm 5 m/S 737 mmHg 87%
    01:00 +7°C° 0 mm 4 m/S 737 mmHg 88%
    02:00 +7°C° 0 mm 4 m/S 737 mmHg 89%
    03:00 +7°C° 0 mm 4 m/S 736 mmHg 88%
    04:00 +7°C° 0 mm 3 m/S 737 mmHg 88%
    05:00 +7°C° 0 mm 2 m/S 737 mmHg 88%
    06:00 +8°C° 0 mm 1 m/S 737 mmHg 87%
    07:00 +7°C° 0 mm 3 m/S 737 mmHg 82%
    08:00 +7°C° 0 mm 4 m/S 737 mmHg 76%
    09:00 +8°C° 0 mm 5 m/S 737 mmHg 72%
    10:00 +9°C° 0 mm 6 m/S 738 mmHg 70%
    11:00 +9°C° 0 mm 7 m/S 738 mmHg 67%
    12:00 +10°C° 0 mm 8 m/S 738 mmHg 65%
    13:00 +10°C° 0 mm 8 m/S 738 mmHg 66%
    14:00 +8°C° 0 mm 9 m/S 737 mmHg 66%
    15:00 +8°C° 0 mm 10 m/S 737 mmHg 66%
    16:00 +7°C° 0 mm 10 m/S 737 mmHg 68%
    17:00 +6°C° 0 mm 9 m/S 737 mmHg 70%
    18:00 +5°C° 0 mm 9 m/S 738 mmHg 73%
    19:00 +5°C° 0 mm 9 m/S 738 mmHg 73%
    20:00 +5°C° 0 mm 8 m/S 738 mmHg 73%
    21:00 +5°C° 0 mm 8 m/S 738 mmHg 73%
    22:00 +5°C° 0 mm 8 m/S 739 mmHg 72%
    23:00 +5°C° 0 mm 8 m/S 739 mmHg 71%

    Morgen, 25 März, Montag

    Zeit Temperatur Niederschläge Wind Luftdruck Luftfeuchtigkeit
    00:00 +5°C° 0 mm 9 m/S 739 mmHg 70%
    01:00 +5°C° 0.1 mm 9 m/S 739 mmHg 68%
    02:00 +3°C° 0.1 mm 9 m/S 739 mmHg 66%
    03:00 +3°C° 0.1 mm 9 m/S 739 mmHg 65%
    04:00 +3°C° 0.1 mm 10 m/S 739 mmHg 63%
    05:00 +3°C° 0.1 mm 10 m/S 740 mmHg 62%
    06:00 +3°C° 0.1 mm 11 m/S 740 mmHg 60%
    07:00 +3°C° 0.3 mm 12 m/S 740 mmHg 59%
    08:00 +3°C° 0.3 mm 12 m/S 740 mmHg 57%
    09:00 +3°C° 0.3 mm 13 m/S 741 mmHg 55%
    10:00 +3°C° 0.7 mm 13 m/S 741 mmHg 59%
    11:00 +3°C° 0.7 mm 12 m/S 741 mmHg 62%
    12:00 +3°C° 0.7 mm 12 m/S 741 mmHg 66%
    13:00 +3°C° 0.6 mm 12 m/S 741 mmHg 68%
    14:00 +2°C° 0.6 mm 12 m/S 740 mmHg 70%
    15:00 +2°C° 0.6 mm 11 m/S 740 mmHg 73%
    16:00 +2°C° 0.3 mm 11 m/S 740 mmHg 73%
    17:00 +2°C° 0.3 mm 10 m/S 741 mmHg 74%
    18:00 +2°C° 0.3 mm 9 m/S 741 mmHg 74%
    19:00 +2°C° 0.2 mm 9 m/S 741 mmHg 74%
    20:00 +2°C° 0.2 mm 8 m/S 741 mmHg 74%
    21:00 +3°C° 0.2 mm 7 m/S 741 mmHg 74%
    22:00 +3°C° 0.1 mm 6 m/S 741 mmHg 73%
    23:00 +4°C° 0.1 mm 4 m/S 741 mmHg 72%

    übermorgen, 26 März, Dienstag

    Zeit Temperatur Niederschläge Wind Luftdruck Luftfeuchtigkeit
    00:00 +4°C° 0.1 mm 3 m/S 741 mmHg 72%
    01:00 +4°C° 0.1 mm 3 m/S 741 mmHg 73%
    02:00 +5°C° 0.1 mm 2 m/S 741 mmHg 74%
    03:00 +5°C° 0.1 mm 2 m/S 741 mmHg 76%
    04:00 +5°C° 0 mm 2 m/S 741 mmHg 76%
    05:00 +5°C° 0 mm 2 m/S 741 mmHg 76%
    06:00 +5°C° 0 mm 2 m/S 742 mmHg 77%
    07:00 +5°C° 0 mm 2 m/S 742 mmHg 71%
    08:00 +6°C° 0 mm 2 m/S 742 mmHg 66%
    09:00 +7°C° 0 mm 2 m/S 743 mmHg 60%
    10:00 +8°C° 0 mm 2 m/S 742 mmHg 58%
    11:00 +8°C° 0 mm 2 m/S 742 mmHg 56%
    12:00 +9°C° 0 mm 2 m/S 742 mmHg 53%
    13:00 +9°C° 0 mm 2 m/S 742 mmHg 53%
    14:00 +10°C° 0 mm 3 m/S 741 mmHg 53%
    15:00 +10°C° 0 mm 3 m/S 741 mmHg 53%
    16:00 +9°C° 0 mm 3 m/S 741 mmHg 55%
    17:00 +9°C° 0 mm 3 m/S 741 mmHg 57%
    18:00 +8°C° 0 mm 3 m/S 740 mmHg 59%
    19:00 +8°C° 0 mm 3 m/S 741 mmHg 61%
    20:00 +8°C° 0 mm 3 m/S 741 mmHg 63%
    21:00 +7°C° 0 mm 2 m/S 741 mmHg 65%
    22:00 +7°C° 0 mm 3 m/S 740 mmHg 67%
    23:00 +7°C° 0 mm 3 m/S 740 mmHg 68%

    27 März, Mittwoch

    Zeit Temperatur Niederschläge Wind Luftdruck Luftfeuchtigkeit
    00:00 +7°C° 0 mm 3 m/S 739 mmHg 70%
    01:00 +7°C° 0 mm 3 m/S 739 mmHg 72%
    02:00 +7°C° 0 mm 3 m/S 738 mmHg 74%
    03:00 +5°C° 0 mm 4 m/S 738 mmHg 76%
    04:00 +5°C° 0 mm 4 m/S 738 mmHg 76%
    05:00 +5°C° 0 mm 4 m/S 738 mmHg 76%
    06:00 +5°C° 0 mm 5 m/S 738 mmHg 77%
    07:00 +6°C° 0 mm 5 m/S 738 mmHg 74%
    08:00 +7°C° 0 mm 5 m/S 738 mmHg 71%
    09:00 +8°C° 0 mm 4 m/S 739 mmHg 67%
    10:00 +8°C° 0 mm 4 m/S 738 mmHg 64%
    11:00 +10°C° 0 mm 3 m/S 738 mmHg 61%
    12:00 +12°C° 0 mm 2 m/S 738 mmHg 58%
    13:00 +12°C° 0 mm 2 m/S 738 mmHg 58%
    14:00 +13°C° 0 mm 2 m/S 738 mmHg 57%
    15:00 +13°C° 0 mm 1 m/S 738 mmHg 56%
    16:00 +13°C° 0 mm 1 m/S 738 mmHg 60%
    17:00 +12°C° 0 mm 2 m/S 738 mmHg 64%
    18:00 +10°C° 0 mm 2 m/S 739 mmHg 68%
    19:00 +10°C° 0 mm 2 m/S 739 mmHg 72%
    20:00 +11°C° 0 mm 1 m/S 739 mmHg 76%
    21:00 +10°C° 0 mm 1 m/S 740 mmHg 80%
    22:00 +10°C° 0 mm 1 m/S 740 mmHg 81%
    23:00 +10°C° 0 mm 1 m/S 740 mmHg 82%

    28 März, Donnerstag

    Zeit Temperatur Niederschläge Wind Luftdruck Luftfeuchtigkeit
    00:00 +10°C° 0 mm 1 m/S 740 mmHg 83%
    01:00 +10°C° 0 mm 1 m/S 740 mmHg 83%
    02:00 +9°C° 0 mm 0 m/S 740 mmHg 83%
    03:00 +8°C° 0 mm 0 m/S 740 mmHg 84%
    04:00 +9°C° 0 mm 0 m/S 740 mmHg 82%
    05:00 +9°C° 0 mm 0 m/S 741 mmHg 79%
    06:00 +9°C° 0 mm 0 m/S 741 mmHg 77%
    07:00 +11°C° 0 mm 1 m/S 742 mmHg 68%
    08:00 +12°C° 0 mm 3 m/S 742 mmHg 59%
    09:00 +13°C° 0 mm 4 m/S 743 mmHg 50%
    10:00 +13°C° 0 mm 5 m/S 743 mmHg 49%
    11:00 +13°C° 0 mm 6 m/S 743 mmHg 48%
    12:00 +14°C° 0 mm 7 m/S 743 mmHg 47%
    13:00 +12°C° 0 mm 8 m/S 743 mmHg 52%
    14:00 +11°C° 0 mm 8 m/S 743 mmHg 56%
    15:00 +10°C° 0 mm 9 m/S 743 mmHg 61%
    16:00 +8°C° 0 mm 9 m/S 743 mmHg 62%
    17:00 +7°C° 0 mm 10 m/S 743 mmHg 63%
    18:00 +6°C° 0 mm 10 m/S 744 mmHg 64%
    19:00 +5°C° 0 mm 10 m/S 744 mmHg 64%
    20:00 +5°C° 0 mm 10 m/S 744 mmHg 65%
    21:00 +3°C° 0 mm 10 m/S 745 mmHg 65%
    22:00 +3°C° 0.1 mm 10 m/S 745 mmHg 66%
    23:00 +3°C° 0.1 mm 9 m/S 745 mmHg 67%

    29 März, Freitag

    Zeit Temperatur Niederschläge Wind Luftdruck Luftfeuchtigkeit
    00:00 +3°C° 0.1 mm 9 m/S 745 mmHg 68%
    01:00 +2°C° 0.2 mm 9 m/S 745 mmHg 69%
    02:00 +2°C° 0.2 mm 9 m/S 745 mmHg 71%
    03:00 +2°C° 0.2 mm 9 m/S 744 mmHg 72%
    04:00 +2°C° 0.2 mm 9 m/S 745 mmHg 73%
    05:00 +2°C° 0.2 mm 8 m/S 745 mmHg 74%
    06:00 +2°C° 0.2 mm 8 m/S 745 mmHg 75%
    07:00 +2°C° 0.1 mm 8 m/S 746 mmHg 75%
    08:00 +2°C° 0.1 mm 8 m/S 746 mmHg 74%
    09:00 +3°C° 0.1 mm 7 m/S 746 mmHg 74%
    10:00 +4°C° 0 mm 7 m/S 746 mmHg 72%
    11:00 +4°C° 0 mm 7 m/S 745 mmHg 70%
    12:00 +5°C° 0 mm 6 m/S 745 mmHg 67%
    13:00 +5°C° 0 mm 6 m/S 745 mmHg 68%
    14:00 +5°C° 0 mm 6 m/S 745 mmHg 68%
    15:00 +7°C° 0 mm 5 m/S 744 mmHg 68%
    16:00 +6°C° 0 mm 5 m/S 744 mmHg 72%
    17:00 +5°C° 0 mm 5 m/S 744 mmHg 75%
    18:00 +5°C° 0 mm 4 m/S 744 mmHg 79%
    19:00 +5°C° 0 mm 4 m/S 744 mmHg 80%
    20:00 +4°C° 0 mm 3 m/S 744 mmHg 81%
    21:00 +4°C° 0 mm 3 m/S 744 mmHg 83%
    22:00 +5°C° 0 mm 2 m/S 744 mmHg 83%
    23:00 +6°C° 0 mm 1 m/S 744 mmHg 84%
    Mehr zeigen